Content
SEND FEEDBACK

Daily
Averages
Monthly
Summary
United States of America

WILMINGTON, NORTH CAROLINA


Home > North America > United States > North Carolina
Elevation: 72 feet     Latitude: 34 16N     Longitude: 077 54W

WEATHER
 
SELECT A DAY
Number of Records: 208,807;   Date Range: 1/1/95 - 7/29/14
 
SHARE

PRINT THIS DATA

[ ← Previous Day ]
WEATHER ALMANAC - JULY 26, 2013
[ Next Day → ]
[ °C ]   °F
Weather ElementAverageHighLow
Temperature77 °F82.9 °F (1:53 pm)69.1 °F (4:53 am)
Dewpoint68.1 °F70 °F (9:53 am)66 °F (3:53 pm)
Humidity75.3 %94 % (7:04 am)56 % (3:53 pm)
Barometer30.06 in30.09 in (9:53 am)30.00 in (2:53 am)
Wind Speed6 mph9.2 mph (7:53 am)
Weather ElementAverage
Visibility9.8 mi
Wind DirectionENE (57.5 °)

Weather ElementTotal
Precipitation0.03 in
Cooling Degree Days11 (Base 65)
Growing Degree Days26 (Base 50)
Averaged from 28 records on July 26, 2013
WEATHER CONDITIONS BREAKOUT
WIND DIRECTION BREAKOUT
WEATHER BY HOUR - JULY 26, 2013
[ °C ]   °F
Local TimeTemperatureDewpointHumidityBarometerVisibilityWind DirectionWind SpeedGust SpeedPrecipitationEventsConditions
1:53 AM72.0 °F69.1 °F91 %30.01 in10.0 miNE (40°)4.6 mph0.01 inClear
2:53 AM71.1 °F68.0 °F90 %30.00 in10.0 miNE (40°)5.8 mphClear
3:53 AM70.0 °F68.0 °F93 %30.00 in10.0 miNE (40°)5.8 mphClear
4:53 AM69.1 °F66.9 °F93 %30.02 in9.0 miNE (40°)3.5 mphClear
5:53 AM69.1 °F66.9 °F93 %30.04 in9.0 miNorth (10°)4.6 mph0.01 inClear
6:53 AM69.1 °F66.9 °F93 %30.05 in7.0 miNNE (30°)4.6 mphClear
7:04 AM69.8 °F68.0 °F94 %30.05 in9.0 miNNE (20°)5.8 mphPartly Cloudy
7:53 AM72.0 °F68.0 °F87 %30.06 in10.0 miNNE (30°)9.2 mphClear
8:53 AM75.0 °F69.1 °F82 %30.08 in10.0 miNE (50°)6.9 mphClear
9:53 AM79.0 °F70.0 °F74 %30.09 in10.0 miENE (70°)6.9 mphClear
10:53 AM81.0 °F68.0 °F65 %30.09 in10.0 miEast (90°)8.1 mphPartly Cloudy
11:07 AM80.6 °F68.0 °F65 %30.09 in10.0 miEast (90°)8.1 mphMostly Cloudy
11:16 AM80.6 °F68.0 °F65 %30.09 in10.0 miENE (70°)4.6 mphScattered Clouds
11:25 AM82.4 °F68.0 °F62 %30.09 in10.0 miENE (60°)8.1 mphMostly Cloudy
11:48 AM82.4 °F69.8 °F66 %30.09 in10.0 miVariable5.8 mphScattered Clouds
11:53 AM82.0 °F68.0 °F62 %30.09 in10.0 miVariable5.8 mphScattered Clouds
12:53 PM82.0 °F66.9 °F60 %30.08 in10.0 miVariable4.6 mphClear
1:53 PM82.9 °F66.9 °F58 %30.07 in10.0 miESE (110°)8.1 mphClear
2:53 PM82.9 °F68.0 °F60 %30.06 in10.0 miSSE (150°)5.8 mphClear
3:53 PM82.9 °F66.0 °F56 %30.05 in10.0 miVariable5.8 mphClear
4:53 PM82.0 °F66.9 °F60 %30.05 in10.0 miESE (110°)6.9 mphClear
5:53 PM82.0 °F66.9 °F60 %30.05 in10.0 miSE (130°)9.2 mphClear
6:53 PM81.0 °F68.0 °F65 %30.05 in10.0 miESE (110°)9.2 mphClear
7:53 PM78.1 °F68.0 °F71 %30.06 in10.0 miESE (110°)9.2 mphClear
8:53 PM77.0 °F70.0 °F79 %30.06 in10.0 miESE (110°)6.9 mph0.01 inClear
9:53 PM75.9 °F70.0 °F82 %30.06 in10.0 miEast (100°)4.6 mphClear
10:53 PM73.0 °F70.0 °F90 %30.06 in10.0 miCalmClear
11:53 PM71.1 °F69.1 °F93 %30.06 in10.0 miCalmClear
Hourly data recorded from KILM, located miles away from Wilmington, North Carolina







STORIES FROM OUR PARTNERS